[[{"header":{"parameterUnit":"m.s-1","parameterCategory":1,"la1":30.2991,"la2":30.254,"lo1":-89.0895,"lo2":-89.0444,"dy":0.0017,"dx":0.0017,"nx":28,"ny":28,"refTime":"2023-07-23T21:00:00:Z","depth":0,"parameterNumber":2,"parameterNumberName":"U-component_of_WINDS"},"data":[0,0,0,0,0,0,0,0,0,0,0,0,0,0,0,0,0,0,0,0,0,0,0,0,0,0,0,0,0,0,0,0,0,0,0,0,0,0,0,0,0,0,0,0,0,0,0,0,0,0,0,0,0,0,0,0,0,0,-0.5821,-0.582,0,-0.5707,-0.5706,-0.5705,-0.5643,-0.5643,-0.5643,-0.5643,-0.5523,-0.552,-0.5517,0,0,0,0,0,0,0,0,0,0,0,0,0,-0.5985,-0.5982,-0.5821,-0.582,-0.5819,-0.5707,-0.5706,-0.5704,-0.5643,-0.5643,-0.5643,-0.5642,-0.5524,-0.5521,-0.5517,0,0,0,0,0,0,0,0,0,0,0,0,0,-0.5897,-0.5981,-0.5822,-0.5775,-0.5769,-0.5708,-0.5706,-0.5704,-0.5643,-0.5643,-0.5643,-0.5642,-0.5525,-0.5521,-0.5516,-0.5492,0,0,-0.5502,-0.55,0,0,0,0,0,0,0,0,-0.5902,-0.5891,-0.5783,-0.5778,-0.5772,-0.5689,-0.572,-0.5633,-0.5643,-0.5691,-0.5643,-0.5642,-0.5578,-0.5569,-0.5548,-0.5487,-0.5481,-0.5502,-0.5499,-0.5497,-0.5496,0,0,0,0,0,0,0,-0.5908,-0.5895,-0.5776,-0.5782,-0.5775,-0.5759,-0.5746,-0.5703,-0.5637,-0.5687,-0.5682,-0.5669,-0.5575,-0.5553,-0.5545,-0.548,-0.5502,-0.5498,-0.5495,-0.5493,-0.5393,-0.5393,0,0,0,0,0,0,-0.5922,-0.5901,-0.578,-0.5773,-0.5838,-0.5756,-0.5742,-0.5716,-0.5637,-0.5625,-0.567,-0.5667,-0.5561,-0.5551,-0.5541,-0.5507,-0.5497,-0.5493,-0.549,-0.5393,-0.5393,-0.5393,0,0,0,0,0,0,-0.5926,-0.5912,-0.5784,-0.5835,-0.5818,-0.5753,-0.5725,-0.5714,-0.5691,-0.5625,-0.5612,-0.5659,-0.556,-0.5547,-0.5505,-0.5502,-0.5491,-0.5487,-0.5393,-0.5393,-0.5393,-0.544,0,0,0,0,0,0,-0.5931,-0.5913,-0.5904,-0.5836,-0.5816,-0.5751,-0.5725,-0.5712,-0.5684,-0.5679,-0.5611,-0.56,-0.5559,-0.5512,-0.55,-0.5495,-0.5483,-0.5392,-0.5393,-0.5393,-0.5438,-0.5441,-0.5444,0,0,0,0,0,-0.5937,-0.5921,-0.5904,-0.5889,-0.5802,-0.5751,-0.5739,-0.5693,-0.5684,-0.5673,-0.5631,-0.5602,-0.5505,-0.5508,-0.5495,-0.5488,-0.5392,-0.5393,-0.5393,-0.5437,-0.5441,-0.5444,0,0,0,0,0,0,-0.5989,-0.5911,-0.5891,-0.5853,-0.5809,-0.5741,-0.5726,-0.5699,-0.5657,-0.5654,-0.5598,-0.5583,-0.5546,-0.5513,-0.5519,-0.5461,-0.5446,-0.5443,-0.5484,-0.5487,-0.549,-0.5498,-0.5479,0,0,0,0,0,-0.5996,-0.5962,-0.5895,-0.5868,-0.5847,-0.5791,-0.5767,-0.5735,-0.5687,-0.5668,-0.5623,-0.5577,-0.5536,-0.551,-0.5468,-0.5434,-0.5418,-0.5423,-0.5426,-0.5429,-0.5426,-0.5406,-0.5407,-0.5393,-0.5393,-0.5393,0,0,-0.601,-0.5963,-0.5945,-0.5877,-0.584,-0.5805,-0.5775,-0.5739,-0.5713,-0.5663,-0.562,-0.5585,-0.553,-0.5492,-0.5473,-0.5463,-0.5427,-0.5429,-0.5432,-0.5428,-0.5406,-0.5407,-0.5409,-0.5393,-0.5393,-0.5393,0,0,-0.6018,-0.5979,-0.5952,-0.5916,-0.586,-0.5823,-0.5817,-0.5753,-0.5728,-0.5685,-0.5647,-0.5614,-0.5545,-0.5507,-0.5479,-0.5475,-0.5447,-0.5463,-0.5479,-0.5459,-0.546,-0.5461,-0.5459,-0.5459,-0.5462,-0.5462,-0.5462,0,-0.6042,-0.5988,-0.5942,-0.5908,-0.5879,-0.5834,-0.5806,-0.5773,-0.5706,-0.5687,-0.5678,-0.5591,-0.5551,-0.5503,-0.5503,-0.5482,-0.5472,-0.547,-0.5464,-0.5464,-0.5464,-0.5461,-0.5461,-0.5464,-0.5464,-0.5464,-0.5464,0,-0.6021,-0.5984,-0.5969,-0.5907,-0.5877,-0.5846,-0.5795,-0.577,-0.5742,-0.5706,-0.5663,-0.5614,-0.5562,-0.5549,-0.552,-0.5497,-0.5493,-0.5475,-0.5458,-0.5468,-0.5465,-0.5464,-0.5468,-0.5467,-0.5466,-0.5466,0,0,-0.6055,-0.597,-0.5965,-0.5936,-0.5872,-0.5843,-0.5811,-0.5761,-0.574,-0.5697,-0.5668,-0.5611,-0.5595,-0.5563,-0.5531,-0.5514,-0.5513,-0.5497,-0.5495,-0.5501,-0.5484,-0.5497,-0.5497,-0.5495,-0.5495,-0.5495,-0.5488,0,-0.6053,-0.5993,-0.5951,-0.5908,-0.5873,-0.5831,-0.5803,-0.5761,-0.5727,-0.5692,-0.5655,-0.5615,-0.5596,-0.5577,-0.5559,-0.5517,-0.5509,-0.5517,-0.5467,-0.5466,-0.548,-0.5495,-0.5508,-0.5504,-0.5487,-0.5487,-0.5486,0,-0.6041,-0.6,-0.5954,-0.5894,-0.5878,-0.5854,-0.5805,-0.5773,-0.5725,-0.5701,-0.5667,-0.5634,-0.5598,-0.5587,-0.5536,-0.5543,-0.552,-0.5497,-0.5496,-0.5488,-0.5475,-0.5486,-0.5502,-0.5501,-0.5484,-0.5484,-0.5484,0,-0.6071,-0.6003,-0.5967,-0.5944,-0.5874,-0.5858,-0.5828,-0.5779,-0.5752,-0.571,-0.5692,-0.5646,-0.5621,-0.5586,-0.5541,-0.5537,-0.5496,-0.548,-0.5474,-0.5475,-0.5465,-0.5466,-0.5477,-0.5454,-0.5454,-0.5454,-0.5454,0,-0.6071,-0.6044,-0.5979,-0.5956,-0.5925,-0.5877,-0.5848,-0.5814,-0.5771,-0.5741,-0.5702,-0.5675,-0.5619,-0.5585,-0.555,-0.5513,-0.5502,-0.5482,-0.5472,-0.5484,-0.5487,-0.5467,-0.5466,-0.5454,-0.5454,-0.5454,-0.5454,0,-0.6097,-0.6053,-0.601,-0.5948,-0.5932,-0.5911,-0.5858,-0.5834,-0.5799,-0.5762,-0.575,-0.5695,-0.5653,-0.5606,-0.5548,-0.5524,-0.549,-0.5477,-0.5506,-0.55,-0.5497,-0.5498,-0.5494,-0.5491,-0.5472,-0.5472,-0.5472,0,-0.61,-0.6078,-0.6015,-0.5992,-0.5963,-0.5928,-0.59,-0.5853,-0.5827,-0.5771,-0.5754,-0.5709,-0.567,-0.5605,-0.5559,-0.5515,-0.55,-0.5502,-0.5493,-0.5506,-0.5499,-0.55,-0.5497,-0.5504,-0.5505,-0.5505,-0.5505,0,-0.6109,-0.6089,-0.6051,-0.6006,-0.5975,-0.5938,-0.5898,-0.5882,-0.5827,-0.5799,-0.5756,-0.5727,-0.5668,-0.5624,-0.5574,-0.5543,-0.5515,-0.5509,-0.5505,-0.5516,-0.5533,-0.5523,-0.5512,-0.5509,-0.5508,-0.5508,-0.5508,-0.5508,-0.6123,-0.6102,-0.6054,-0.6013,-0.5979,-0.5944,-0.5919,-0.5881,-0.5845,-0.5794,-0.5769,-0.5726,-0.5679,-0.5609,-0.5579,-0.5545,-0.5535,-0.553,-0.5528,-0.5527,-0.553,-0.5541,-0.5536,-0.5535,-0.5535,-0.5535,-0.5535,0,-0.6129,-0.6096,-0.606,-0.6007,-0.5975,-0.5954,-0.5909,-0.5884,-0.5847,-0.5806,-0.577,-0.572,-0.5678,-0.563,-0.5584,-0.5566,-0.5552,-0.5555,-0.5555,-0.5548,-0.5541,-0.5549,-0.5568,-0.5568,-0.5568,-0.5568,-0.5568,-0.5568,-0.6128,-0.6091,-0.6065,-0.6011,-0.5979,-0.5937,-0.5914,-0.5881,-0.5848,-0.5795,-0.576,-0.5729,-0.5685,-0.5636,-0.5596,-0.5583,-0.5568,-0.5575,-0.5558,-0.5552,-0.5549,-0.5546,-0.5553,-0.5572,-0.5572,-0.5568,-0.5568,-0.5568]},{"header":{"parameterUnit":"m.s-1","parameterCategory":1,"la1":30.2991,"la2":30.254,"lo1":-89.0895,"lo2":-89.0444,"dy":0.0017,"dx":0.0017,"nx":28,"ny":28,"refTime":"2023-07-23T21:00:00:Z","depth":0,"parameterNumber":3,"parameterNumberName":"V-component_of_WINDS"},"data":[0,0,0,0,0,0,0,0,0,0,0,0,0,0,0,0,0,0,0,0,0,0,0,0,0,0,0,0,0,0,0,0,0,0,0,0,0,0,0,0,0,0,0,0,0,0,0,0,0,0,0,0,0,0,0,0,0,0,3.2951,3.2951,0,3.2984,3.2984,3.2985,3.3035,3.3036,3.3037,3.3038,3.3069,3.3069,3.3069,0,0,0,0,0,0,0,0,0,0,0,0,0,3.293,3.293,3.2951,3.2952,3.2952,3.2984,3.2984,3.2985,3.3035,3.3036,3.3037,3.3038,3.3069,3.3069,3.3069,0,0,0,0,0,0,0,0,0,0,0,0,0,3.2949,3.293,3.2951,3.2981,3.2984,3.2984,3.2984,3.2985,3.3035,3.3036,3.3038,3.3039,3.3069,3.3069,3.3069,3.3041,0,0,3.3069,3.3069,0,0,0,0,0,0,0,0,3.2947,3.2949,3.2976,3.2979,3.2982,3.3007,3.2988,3.3003,3.3034,3.3015,3.3038,3.304,3.3047,3.3049,3.3052,3.3042,3.3044,3.3069,3.3069,3.3069,3.3069,0,0,0,0,0,0,0,3.2946,3.2948,3.2964,3.2976,3.298,3.2992,3.2996,3.2991,3.3023,3.3017,3.3021,3.3024,3.3049,3.3052,3.3053,3.3044,3.3069,3.3069,3.3069,3.3068,3.3013,3.3012,0,0,0,0,0,0,3.2941,3.2947,3.2963,3.2965,3.2968,3.2991,3.2996,3.2998,3.3023,3.3028,3.3023,3.3027,3.3051,3.3053,3.3054,3.3023,3.3069,3.3068,3.3068,3.3015,3.3013,3.3011,0,0,0,0,0,0,3.294,3.2942,3.2962,3.2957,3.296,3.299,3.2992,3.2997,3.3,3.3028,3.3033,3.302,3.3052,3.3054,3.3044,3.3025,3.3068,3.3068,3.3016,3.3014,3.3012,3.2961,0,0,0,0,0,0,3.2939,3.2941,3.2931,3.2956,3.296,3.2951,3.299,3.2997,3.3001,3.3005,3.3027,3.3031,3.3053,3.3044,3.3044,3.3026,3.3068,3.3018,3.3015,3.3013,3.2964,3.2957,3.2951,0,0,0,0,0,3.2938,3.2915,3.2931,3.2932,3.2949,3.295,3.2953,3.2979,3.2999,3.2989,3.3006,3.3031,3.3027,3.3042,3.3043,3.3024,3.302,3.3016,3.3013,3.2967,3.2958,3.2951,0,0,0,0,0,0,3.2886,3.2919,3.2937,3.2921,3.2932,3.2959,3.2947,3.2969,3.2975,3.2979,3.3011,3.3015,3.3001,3.3012,3.3028,3.2999,3.3027,3.3024,3.2992,3.2984,3.2977,3.2975,3.3068,0,0,0,0,0,3.2873,3.2872,3.29,3.2884,3.2889,3.2917,3.2918,3.2938,3.2951,3.2956,3.2973,3.2984,3.2985,3.2985,3.2988,3.2966,3.2971,3.2954,3.2947,3.2941,3.2938,3.2927,3.2919,3.3001,3.3001,3.3001,0,0,3.2845,3.2863,3.2861,3.2874,3.2885,3.2883,3.2921,3.2916,3.2915,3.2955,3.2947,3.2959,3.2973,3.2957,3.2951,3.2966,3.2917,3.2937,3.2933,3.2932,3.2923,3.2915,3.2908,3.2999,3.2999,3.2999,0,0,3.2794,3.2808,3.2795,3.2806,3.2823,3.2842,3.2839,3.2862,3.2872,3.2864,3.2894,3.2892,3.2894,3.2903,3.2908,3.286,3.2882,3.286,3.2825,3.2813,3.2807,3.2801,3.2784,3.2777,3.2856,3.2856,3.2856,0,3.2757,3.2756,3.2786,3.278,3.2784,3.2822,3.2809,3.2818,3.2834,3.2836,3.2853,3.2856,3.2868,3.2855,3.2843,3.2846,3.2843,3.2857,3.2806,3.28,3.2796,3.2779,3.2773,3.2853,3.2854,3.2854,3.2854,0,3.271,3.2708,3.2696,3.2712,3.2715,3.2705,3.2733,3.2733,3.2752,3.2769,3.276,3.2776,3.2783,3.2781,3.28,3.277,3.2779,3.28,3.2829,3.2785,3.277,3.2763,3.2849,3.285,3.2851,3.2852,0,0,3.2626,3.2659,3.2654,3.2661,3.2683,3.2682,3.2674,3.2681,3.268,3.269,3.2684,3.2684,3.2704,3.271,3.273,3.272,3.268,3.2742,3.2743,3.273,3.2648,3.2631,3.2623,3.2695,3.2694,3.2693,3.2646,0,3.2578,3.2567,3.2594,3.2576,3.2575,3.261,3.2603,3.2615,3.263,3.2631,3.2648,3.2647,3.2674,3.2678,3.267,3.2686,3.2664,3.269,3.2689,3.2688,3.2684,3.2616,3.2598,3.2553,3.2641,3.264,3.2639,0,3.2521,3.2529,3.2511,3.2534,3.2534,3.2528,3.2536,3.2537,3.2551,3.2562,3.2568,3.2592,3.2585,3.2613,3.2603,3.2621,3.2622,3.263,3.2629,3.2629,3.2661,3.2614,3.2539,3.2532,3.263,3.2631,3.2631,0,3.2461,3.2468,3.2458,3.2463,3.2489,3.2484,3.2494,3.251,3.2512,3.252,3.2522,3.2528,3.2531,3.2535,3.2559,3.2577,3.2546,3.2576,3.2555,3.2554,3.2546,3.2546,3.247,3.2547,3.2547,3.2548,3.2548,0,3.2405,3.2393,3.2431,3.2425,3.2412,3.2443,3.2428,3.2442,3.2456,3.2452,3.2483,3.2479,3.2512,3.2511,3.253,3.2518,3.2519,3.2528,3.2533,3.2525,3.2524,3.2526,3.253,3.2546,3.2546,3.2547,3.2547,0,3.2336,3.2362,3.2353,3.2379,3.2385,3.2374,3.2396,3.239,3.2408,3.2403,3.2404,3.2431,3.2432,3.2456,3.2462,3.2474,3.2455,3.2466,3.2451,3.2454,3.2431,3.2433,3.2353,3.2344,3.2427,3.2426,3.2425,0,3.2299,3.229,3.2315,3.2315,3.2324,3.2324,3.2328,3.2357,3.2359,3.2374,3.2367,3.237,3.2375,3.2374,3.2393,3.2398,3.2409,3.2381,3.241,3.2402,3.2408,3.2408,3.2407,3.2374,3.2373,3.2373,3.2372,0,3.2229,3.2242,3.2246,3.2254,3.2257,3.2264,3.2273,3.2271,3.2304,3.2304,3.2306,3.2309,3.2315,3.2318,3.2326,3.2336,3.2359,3.2363,3.2358,3.2349,3.2341,3.2345,3.2434,3.2364,3.2365,3.2366,3.2366,3.2366,3.2175,3.2168,3.2185,3.2188,3.2198,3.2206,3.2203,3.222,3.2222,3.223,3.2247,3.2246,3.2259,3.2273,3.2281,3.2279,3.2294,3.2287,3.2285,3.2283,3.2278,3.2341,3.2281,3.2281,3.2281,3.2282,3.2282,0,3.2107,3.2119,3.2121,3.2134,3.2136,3.2159,3.217,3.217,3.2169,3.218,3.2184,3.2185,3.2188,3.2208,3.2213,3.2208,3.2218,3.2208,3.2208,3.221,3.2265,3.2269,3.2199,3.2199,3.2199,3.2199,3.2199,3.2199,3.2071,3.2062,3.2077,3.2073,3.2086,3.2085,3.209,3.2097,3.2106,3.2107,3.2109,3.2123,3.2137,3.2143,3.2147,3.2152,3.2153,3.2138,3.2147,3.2198,3.2206,3.2214,3.2218,3.2138,3.2138,3.2093,3.2092,3.2092]}]]